Temperature
15 15 15 15 14 14 13 13 12 12 12 14 14 14 15 15 16 16 16 16 16 16 16 16 16 16 16 16 15 15 15 15 15 15 15 15 16 16
14 14 14 14 14 14 14 13 13 12 12 13 13 13 14 14 15 15 16 16 16 16 16 16 16 16 16 15 15 15 15 15 15 15 15 15 16 16
13 13 14 14 14 14 13 13 13 13 13 13 13 13 13 13 14 14 14 14 15 15 15 15 15 15 15 15 15 15 15 15 15 15 15 15 15 15
12 12 13 13 13 13 13 13 13 13 13 13 13 12 12 12 12 13 13 13 13 13 14 14 14 14 14 15 14 14 14 14 14 14 14 14 15 14
11 11 12 12 13 13 13 13 13 13 13 13 13 12 12 12 12 12 12 12 12 13 13 13 13 13 14 14 14 13 13 13 13 13 14 14 14 14
11 11 11 11 12 13 13 13 13 13 13 13 12 12 12 12 12 12 12 12 12 12 12 12 12 12 12 13 13 13 13 13 13 13 13 13 13 13
10 10 10 11 11 12 12 13 13 13 13 12 12 12 12 12 12 12 12 11 11 11 11 11 11 12 12 12 12 12 12 13 13 13 13 12 12 12
10 10 10 10 11 11 12 13 13 13 13 13 12 12 12 12 12 12 12 11 11 11 11 11 11 11 11 11 12 12 12 12 12 12 12 12 12 12
10 10 10 10 11 11 12 12 13 13 13 13 13 12 12 12 12 12 11 11 12 11 11 10 10 10 10 10 11 11 11 11 11 11 11 11 11 11
10 10 10 10 10 11 12 12 13 13 13 13 13 13 12 12 12 12 11 11 11 10 10 10 9 10 10 10 10 10 10 10 10 10 10 9 9 10
10 10 10 10 10 10 11 11 12 12 12 12 12 12 12 12 12 11 11 10 9 9 9 10 9 9 9 9 9 9 9 9 9 8 8 8 8 8
10 10 10 10 10 10 10 11 11 12 12 12 12 12 12 12 12 12 11 11 10 8 9 9 9 9 8 8 8 8 8 8 8 7 7 7 7 7
9 10 10 10 9 10 10 10 11 12 12 12 11 11 11 11 11 11 11 11 11 10 9 9 9 9 9 7 7 7 7 7 7 6 6 6 6 7
9 9 9 9 9 10 10 10 10 10 11 11 11 11 11 10 10 10 10 10 11 12 11 10 10 10 9 8 7 7 7 7 7 6 6 6 6 7
8 9 9 9 9 9 10 10 10 10 10 11 10 10 10 10 10 10 10 10 10 11 11 11 11 10 10 9 8 7 7 7 7 7 7 7 7 7
8 8 8 8 8 9 9 9 10 10 11 11 11 10 10 10 10 10 10 10 10 10 10 10 10 10 10 10 9 8 7 7 7 7 7 7 7 7
8 8 8 8 8 8 9 9 9 10 10 10 11 10 10 10 10 10 10 10 10 10 9 9 9 9 10 10 9 8 8 7 7 7 7 7 7 7
7 8 8 8 8 8 8 8 9 9 10 11 11 11 10 10 10 10 10 10 10 10 10 10 9 9 9 9 9 9 8 8 8 7 7 7 8 8
7 7 7 7 7 7 8 8 9 9 10 11 11 11 11 10 10 10 10 10 11 11 11 10 10 10 9 9 9 9 8 8 8 8 8 8 8 8
7 7 7 7 7 7 7 8 8 9 10 10 11 11 11 11 11 11 11 11 11 11 11 10 10 10 10 10 9 9 9 8 8 8 8 8 8 8
6 6 6 6 7 7 7 8 8 9 10 10 11 11 11 11 11 11 11 11 10 10 10 10 11 10 10 10 9 9 9 9 8 8 8 8 8 8
6 6 6 6 7 7 7 8 8 9 9 10 10 11 11 11 11 10 10 10 10 10 10 10 10 10 9 9 9 9 9 9 9 8 8 8 9 9
6 6 6 6 7 7 7 8 8 9 10 10 10 11 11 10 10 10 10 9 9 9 9 9 9 9 9 9 9 9 9 9 9 9 9 9 9 9
Wind_Speed
10 9 7 6 6 6 6 5 3 3 3 2 2 1 2 3 5 4 5 6 5 5 6 9 12 13 13 13 13 11 10 10 9 8 8 8 9 10
7 8 8 6 6 6 6 6 6 5 4 2 2 2 0 2 4 5 8 12 12 13 14 16 17 17 17 17 17 16 16 15 14 13 12 10 9 7
7 8 10 8 7 6 6 6 7 7 7 4 2 2 2 3 3 5 7 8 11 16 17 18 18 19 19 19 19 19 18 18 17 17 16 16 15 15
6 8 10 8 9 7 7 7 7 8 7 7 2 3 3 4 5 6 5 8 10 16 18 18 18 19 19 20 19 19 19 19 18 18 18 18 18 19
6 7 8 8 9 8 8 8 7 7 7 6 4 3 2 3 5 6 8 8 10 14 17 16 17 17 18 18 18 18 19 19 19 19 20 20 20 21
8 7 7 8 9 8 8 9 8 7 7 6 6 5 3 4 6 6 7 6 7 9 13 14 17 17 17 17 17 17 18 20 20 21 21 22 23 23
8 8 8 10 10 9 8 8 9 8 7 7 7 6 5 6 7 5 8 9 7 6 9 8 9 10 12 15 16 18 19 21 22 23 24 24 25 25
7 7 7 9 11 13 14 13 12 11 11 9 8 9 9 7 7 10 11 9 5 4 7 7 6 8 8 10 15 18 20 21 23 24 24 24 24 23
8 7 6 7 9 9 10 13 15 16 14 11 10 11 10 11 12 13 11 6 6 9 9 7 6 9 8 12 16 17 19 20 21 22 23 23 23 22
9 9 8 9 8 9 8 8 9 11 13 12 11 10 10 13 15 12 12 11 11 6 4 6 5 6 6 10 14 15 16 17 19 21 22 22 22 21
9 9 9 9 11 11 9 9 9 8 9 11 11 10 14 18 18 15 16 15 12 5 2 4 5 5 5 5 9 12 12 16 18 19 20 21 21 19
7 8 11 11 11 11 10 11 11 9 7 7 7 11 15 20 22 19 17 17 15 7 4 4 6 5 4 3 3 6 8 12 18 18 18 18 16 12
7 7 7 10 12 12 13 11 11 10 10 9 9 11 13 14 13 12 12 16 15 6 9 6 6 4 5 5 3 4 6 9 11 11 13 12 10 9
8 7 7 9 10 11 11 11 14 13 9 9 10 11 12 13 12 11 10 8 6 10 14 10 8 6 7 7 6 5 5 7 9 8 9 9 6 6
8 9 8 8 7 7 10 13 15 11 10 11 11 11 10 12 12 11 11 10 9 14 15 9 10 8 9 8 8 6 5 5 7 7 8 7 6 5
8 7 8 6 5 4 6 10 11 11 12 11 11 10 10 11 11 10 10 10 9 9 5 6 12 11 7 7 10 7 6 6 6 6 6 5 5 6
9 6 5 4 4 3 4 7 8 10 10 9 11 12 11 10 9 8 8 9 8 9 8 4 5 6 5 7 9 8 6 4 5 5 5 5 5 7
9 7 7 6 6 5 5 6 7 9 10 11 12 12 12 11 9 7 8 10 10 9 9 7 7 6 4 4 4 9 7 5 4 5 4 5 5 5
7 7 7 7 6 5 5 5 6 9 10 12 12 12 12 11 11 10 10 10 9 9 9 10 11 10 9 7 3 5 8 5 6 5 4 4 4 4
5 6 6 6 6 6 6 6 7 9 10 11 12 12 12 11 11 11 10 10 9 7 8 9 11 11 10 10 7 5 9 7 7 6 5 4 2 2
5 5 5 6 6 6 6 7 8 10 11 11 12 12 12 11 10 9 9 12 9 8 10 9 6 6 6 7 6 5 5 8 7 5 6 4 4 3
5 5 5 6 6 7 7 8 9 10 12 11 11 11 11 11 11 11 10 10 8 8 8 6 7 7 5 7 8 6 6 6 6 6 8 8 5 6
5 5 5 6 6 6 7 9 11 11 11 11 11 11 11 10 10 10 10 9 9 9 9 7 5 4 4 5 7 6 8 7 6 6 8 14 17 16
Wind_Direction
203 202 205 214 208 208 202 199 220 266 287 285 301 347 39 37 26 39 51 66 81 108 133 136 133 130 130 131 134 138 149 155 167 182 196 211 225 238
213 208 212 217 214 210 206 205 210 225 253 255 264 290 321 84 60 64 79 83 86 96 103 108 111 112 113 115 116 117 117 116 116 113 112 111 107 103
227 221 225 218 216 216 210 205 208 213 243 259 254 267 226 156 106 87 85 86 88 92 97 100 103 105 106 106 105 104 103 103 103 102 99 97 94 92
251 236 237 229 224 223 218 215 211 209 223 252 253 248 228 170 132 106 87 87 89 89 92 94 96 98 99 99 99 99 100 100 99 98 96 94 93 92
242 245 246 233 231 227 222 221 215 207 211 229 246 244 226 154 132 108 97 91 86 86 84 86 91 94 96 97 100 102 103 103 102 100 97 95 93 92
228 226 238 238 235 233 227 223 211 204 206 222 237 238 220 156 146 135 117 97 90 87 86 89 94 94 97 101 104 106 107 108 106 103 100 97 94 92
231 222 224 234 238 239 232 222 206 204 205 216 227 223 204 173 161 139 129 114 92 94 98 89 94 92 93 98 103 107 107 108 107 106 104 102 99 96
235 235 234 241 245 244 240 226 207 203 205 209 219 219 204 172 153 147 141 136 123 127 105 90 91 90 85 95 104 107 109 110 111 110 108 106 102 99
226 233 248 251 249 255 251 234 218 208 200 202 214 216 196 171 158 159 159 144 130 147 125 105 96 89 83 90 103 111 115 116 116 116 114 110 106 101
229 226 233 253 260 258 254 235 219 212 210 213 221 216 194 174 164 154 141 117 106 106 110 114 113 99 90 86 97 110 121 126 126 126 122 115 107 100
241 231 227 243 258 253 242 224 211 210 210 214 215 202 172 156 147 140 139 134 133 125 96 108 124 109 95 86 83 98 122 142 142 137 130 120 111 100
251 239 229 235 253 250 232 216 206 197 184 182 180 164 158 153 152 153 150 146 142 139 160 123 144 132 109 99 98 96 103 139 151 145 137 129 121 109
250 244 234 230 246 246 227 218 204 180 176 170 160 154 152 154 153 148 148 151 151 146 160 141 153 139 130 138 127 119 120 134 143 143 140 137 131 123
241 240 233 229 245 246 228 211 181 169 166 162 157 155 154 154 151 144 131 119 132 150 158 152 155 160 143 146 147 139 130 143 152 157 162 160 147 131
233 226 218 224 244 243 221 194 174 172 167 163 160 155 150 147 142 132 120 107 107 140 150 154 152 153 151 151 153 150 147 157 170 172 178 184 182 172
217 203 198 214 227 214 188 187 185 178 170 163 154 144 140 143 145 143 142 135 124 139 118 141 160 156 152 148 154 157 156 159 168 178 181 189 195 196
180 174 181 188 201 192 183 187 185 173 163 150 150 150 150 150 148 147 146 150 148 158 162 119 100 99 107 147 159 162 157 156 162 160 171 192 208 209
170 180 189 194 195 184 184 185 178 169 162 155 155 156 159 160 155 154 158 165 165 164 164 156 146 135 110 70 135 165 163 157 157 161 173 190 205 206
179 187 194 195 193 185 180 183 175 165 160 157 155 155 155 157 159 162 167 169 168 165 165 166 170 167 171 172 156 170 172 159 159 171 187 196 208 211
187 190 197 196 191 184 177 178 166 158 155 152 151 152 152 153 156 161 167 168 161 155 159 172 181 180 181 176 163 168 177 169 174 184 187 199 231 261
188 198 202 198 194 182 173 169 166 159 152 149 149 148 150 150 151 154 154 151 151 156 165 171 166 136 113 121 132 157 180 189 178 177 175 186 211 229
192 199 199 192 185 177 167 165 163 155 151 149 148 148 149 149 149 148 150 155 158 152 144 133 140 140 138 161 176 178 178 181 194 198 199 198 194 209
187 185 180 174 169 164 161 159 157 154 153 153 153 152 151 149 149 150 153 153 147 140 134 136 145 148 153 175 187 190 189 187 191 205 228 231 233 243
Height
1473 1474 1476 1478 1479 1479 1480 1481 1483 1483 1483 1482 1482 1481 1481 1480 1480 1480 1481 1481 1483 1484 1485 1487 1489 1491 1494 1496 1498 1500 1503 1506 1509 1512 1516 1519 1521 1523
1466 1468 1470 1473 1474 1475 1476 1477 1479 1480 1480 1480 1480 1479 1478 1477 1476 1477 1477 1478 1479 1481 1482 1484 1486 1489 1491 1493 1495 1498 1500 1502 1505 1508 1511 1514 1516 1518
1457 1460 1464 1467 1469 1471 1472 1473 1474 1476 1476 1477 1477 1477 1475 1474 1474 1474 1474 1475 1477 1478 1480 1482 1485 1487 1489 1492 1494 1496 1498 1500 1503 1505 1508 1510 1512 1514
1449 1452 1456 1460 1463 1465 1467 1468 1470 1471 1472 1472 1473 1474 1472 1472 1472 1472 1473 1474 1476 1477 1479 1481 1484 1486 1489 1491 1493 1495 1497 1499 1502 1504 1506 1508 1510 1511
1442 1445 1449 1453 1456 1459 1461 1463 1465 1466 1468 1468 1469 1470 1470 1470 1470 1471 1472 1474 1475 1477 1479 1481 1484 1486 1489 1491 1494 1496 1498 1500 1502 1504 1506 1507 1509 1510
1436 1439 1442 1446 1449 1452 1455 1457 1459 1461 1462 1463 1464 1466 1467 1467 1468 1469 1471 1473 1475 1477 1480 1482 1484 1487 1489 1492 1494 1497 1499 1501 1502 1504 1506 1508 1509 1510
1431 1433 1436 1439 1442 1445 1448 1450 1453 1455 1457 1458 1459 1461 1462 1463 1465 1466 1468 1471 1475 1478 1480 1483 1486 1488 1490 1493 1495 1498 1500 1502 1504 1505 1507 1508 1510 1511
1426 1429 1431 1434 1435 1438 1441 1443 1446 1448 1451 1452 1454 1455 1457 1459 1461 1463 1466 1469 1473 1478 1481 1484 1487 1489 1492 1494 1497 1499 1502 1504 1505 1507 1509 1510 1511 1512
1422 1424 1426 1428 1430 1432 1434 1436 1438 1441 1444 1447 1448 1449 1452 1453 1456 1460 1463 1466 1469 1474 1480 1483 1488 1490 1493 1495 1498 1501 1503 1505 1507 1509 1510 1511 1512 1513
1418 1419 1421 1422 1424 1425 1426 1428 1431 1434 1437 1440 1442 1444 1446 1449 1452 1456 1459 1463 1469 1474 1479 1482 1488 1491 1494 1497 1500 1502 1504 1506 1508 1510 1511 1512 1513 1514
1411 1413 1415 1416 1417 1419 1419 1421 1424 1427 1431 1434 1436 1438 1441 1444 1447 1450 1454 1459 1465 1473 1479 1482 1487 1491 1495 1498 1500 1503 1504 1506 1509 1511 1512 1513 1514 1515
1405 1407 1409 1410 1412 1412 1413 1415 1417 1421 1425 1428 1430 1433 1436 1438 1441 1445 1450 1456 1461 1470 1477 1481 1486 1490 1495 1499 1501 1503 1505 1506 1509 1511 1513 1514 1515 1516
1398 1400 1403 1405 1406 1406 1407 1409 1412 1417 1420 1423 1425 1429 1432 1436 1439 1443 1448 1454 1459 1465 1473 1479 1484 1488 1491 1496 1500 1503 1506 1507 1509 1511 1514 1515 1517 1518
1391 1394 1396 1399 1400 1400 1401 1403 1407 1412 1415 1418 1421 1425 1429 1434 1438 1444 1450 1457 1463 1468 1473 1478 1482 1486 1489 1494 1498 1503 1505 1508 1510 1512 1514 1516 1517 1519
1384 1388 1390 1392 1394 1394 1395 1398 1402 1407 1411 1414 1418 1423 1428 1433 1439 1445 1452 1459 1465 1471 1476 1480 1484 1487 1490 1493 1497 1501 1504 1507 1510 1513 1515 1516 1518 1519
1378 1382 1385 1387 1388 1389 1390 1393 1397 1402 1407 1412 1416 1422 1427 1434 1440 1446 1452 1459 1465 1471 1477 1481 1486 1489 1491 1494 1497 1500 1503 1506 1509 1512 1514 1516 1518 1519
1373 1377 1379 1382 1383 1384 1385 1389 1393 1398 1404 1409 1415 1420 1427 1434 1440 1447 1453 1459 1465 1470 1475 1480 1484 1488 1492 1494 1497 1500 1503 1505 1508 1510 1513 1515 1517 1518
1369 1372 1375 1377 1379 1380 1382 1385 1389 1395 1401 1408 1414 1420 1426 1433 1440 1447 1453 1459 1464 1469 1474 1478 1482 1486 1490 1494 1498 1499 1502 1505 1507 1509 1512 1514 1515 1517
1365 1368 1371 1373 1375 1377 1379 1382 1386 1392 1399 1406 1413 1420 1427 1433 1440 1446 1451 1457 1463 1467 1472 1476 1480 1483 1487 1491 1495 1499 1501 1503 1506 1508 1509 1511 1513 1515
1362 1365 1367 1370 1372 1374 1376 1380 1384 1391 1398 1406 1413 1420 1426 1433 1439 1445 1450 1455 1460 1465 1469 1473 1478 1481 1485 1488 1492 1495 1499 1501 1504 1506 1508 1509 1511 1512
1359 1362 1364 1367 1369 1371 1374 1377 1382 1389 1397 1405 1413 1419 1426 1432 1438 1444 1449 1454 1458 1462 1467 1471 1475 1480 1484 1487 1490 1493 1497 1499 1502 1504 1506 1508 1509 1510
1358 1359 1361 1364 1367 1369 1372 1376 1382 1389 1397 1405 1412 1419 1426 1432 1438 1443 1447 1451 1456 1461 1465 1470 1474 1478 1482 1485 1488 1491 1495 1497 1499 1501 1504 1506 1506 1508
1357 1359 1360 1362 1365 1367 1371 1376 1382 1389 1397 1405 1413 1419 1426 1431 1437 1442 1446 1451 1455 1459 1464 1468 1472 1476 1480 1483 1486 1489 1492 1494 1497 1499 1501 1502 1504 1505